www.pogodaiklimat.ru

Погода и климат >> Архив погоды >> Россия >> Краснодарский край >> Тихорецк


ПОГОДА в Тихорецке

  • Прогноз погоды в Тихорецке
  • Монитор погоды в Тихорецке

АРХИВ ПОГОДЫ в Тихорецке

Время (UTC), дата Ветер
(напр.,м/с)
 
Видим.   Явления Облачность Т
(С)
Тd
(С)
f
(%)
Тe
(С)
Тes
(С)
Комфортность P
(гПа)
Po
(гПа)
Тmin
(С)
Tmax
(С)
R
(мм)
R24
(мм)
S
(см)
12 11.02 ЮВ 2 10 км 10/10 600 м
[Sc]
+9.1 +2.3 62 +8 +8 1020.8 1011.2
15 11.02 ЮВ 1 10 км 10/10 1000 м
[Sc]
+8.0 +2.7 69 +7 +7 1020.8 1011.2 +9.2
18 11.02 ЮВ 1 10 км ясно +5.6 +1.1 73 +5 +5 1020.7 1011.0
21 11.02 ЮВ 1 10 км ясно +4.6 +1.2 79 +3 +3 1019.9 1010.2
00 12.02 В 3 10 км ясно +3.2 +1.0 85 -1 -1 1019.5 1009.7
03 12.02 В 2 10 км ясно +2.4 +0.1 85 -1 -1 1019.1 1009.3 +2.4
06 12.02 В 2 10 км ясно +2.3 -0.1 84 -1 +1 1019.4 1009.6 +2.3
09 12.02 В 4 10 км 8/0
[Ac As]
+7.5 +1.7 67 +4 +6 1017.9 1008.3
12 12.02 В 3 10 км 10/0
[Ci fib]
+10.9 +1.5 52 +9 +11 1016.5 1007.1
15 12.02 В 2 10 км 10/0
[Ci fib]
+9.0 +1.4 59 +8 +8 1016.8 1007.3 +10.9
18 12.02 В 2 10 км ясно +5.2 +0.3 71 +3 +3 1017.9 1008.2
21 12.02 ЮВ 3 10 км ясно +2.4 -0.8 79 -2 -2 1018.3 1008.5
00 13.02 ЮВ 2 10 км ясно +1.2 -1.4 83 -2 -2 1018.5 1008.7
03 13.02 ЮВ 2 10 км ясно -0.1 -2.3 85 -4 -4 1019.3 1009.4 -0.1
06 13.02 ЮВ 2 10 км 10/0
[Ci]
+2.0 -1.6 77 -1 0 1020.4 1010.6 -0.3
09 13.02 Ю 1 10 км 10/0
[Cs]
+8.7 +1.0 58 +8 +14 1021.0 1011.4
12 13.02 СЗ 2 10 км 10/0
[Cs]
+10.6 +3.5 61 +10 +12 1021.3 1011.8
15 13.02 З 1 10 км 8/0
[Ac As]
+8.0 +2.4 68 +7 +7 1022.1 1012.5 +11.5
18 13.02 З 2 10 км 10/10 1000 м
[Sc]
+3.8 +0.9 81 +1 +1 1023.9 1014.1
21 13.02 СЗ 3 10 км 10/10 600 м
[Sc]
+3.0 -0.4 78 -1 -1 1024.8 1015.0
00 14.02 штиль 0 10 км 10/10 600 м
[Sc]
+0.9 -1.8 82 -0 -0 1025.2 1015.3
03 14.02 СЗ 2 10 км 10/10 600 м
[Sc]
+1.1 -1.9 80 -2 -2 1025.5 1015.6 +0.6
06 14.02 С 3 10 км 10/0
[Ac und]
+0.8 -2.1 81 -4 -3 1026.5 1016.6 +0.4
09 14.02 СВ 2 10 км 10/0
[Ac und]
+3.1 -3.5 62 +1 +2 1026.3 1016.5
12 14.02 СВ 3 10 км 10/0
[Ac As]
+4.5 -4.2 53 +2 +2 1024.8 1015.0
15 14.02 СВ 3 10 км 10/10 600 м
[Sc]
+3.5 -5.5 52 0 0 1024.8 1015.0 +4.6
18 14.02 СВ 4 10 км 10/0
[Ac und]
+2.1 -6.9 51 -2 -2 1025.3 1015.5
21 14.02 СВ 4 10 км 8/0
[Ac trans]
-0.2 -8.4 54 -5 -5 1025.2 1015.3
00 15.02 СВ 4 10 км ясно -1.8 -8.0 63 -7 -7 1025.6 1015.6
03 15.02 СВ 4 10 км 10/10 600 м
[Sc]
-2.3 -6.3 74 -8 -8 1025.6 1015.6 -2.3
06 15.02 СВ 5
{10}
10 км 10/10 1000 м
[Sc]
-2.2 -6.1 75 -9 -9 1026.9 1016.9 -2.7
09 15.02 СВ 3
{10}
10 км 6/0
[Ci fib]
+3.0 -5.0 56 -0 +4 1025.7 1015.9
12 15.02 СВ 5 10 км 8/0
[Ac trans]
+4.6 -5.8 47 +1 +1 1024.7 1014.9
15 15.02 С 3 10 км ясно +2.5 -7.1 49 -1 -1 1024.6 1014.7 +5.2
18 15.02 СВ 2 10 км ясно -0.8 -8.8 55 -4 -4 1024.6 1014.7
21 15.02 С 2 10 км ясно -3.0 -9.1 63 -7 -7 1023.6 1013.5
00 16.02 С 1 10 км ясно -5.2 -9.0 75 -7 -7 1022.5 1012.4
03 16.02 штиль 0 10 км ясно -8.0 -9.7 88 -9 -9 1022.2 1012.0 -8.0
06 16.02 З 2 10 км 10/0
[Ac As]
-4.0 -7.5 77 -8 -7 1022.1 1012.1
09 16.02 ЮЗ 4 10 км 10/0
[Ac As]
+0.9 -3.4 73 -4 -3 1021.6 1011.8
12 16.02 З 4 10 км 10/0
[As op]
+1.4 -1.8 79 -4 -3 1020.7 1010.9
15 16.02 З 3 10 км 10/0
[As op]
+1.6 -1.3 81 -3 -3 1020.7 1010.8 +1.9
18 16.02 З 3 10 км 10/0
[As op]
+1.4 -0.8 85 -3 -3 1021.4 1011.6
21 16.02 ЮЗ 2 10 км 10/0
[As op]
+1.4 0.0 90 -2 -2 1021.1 1011.3
00 17.02 З 2 10 км 10/0
[Cs]
+0.6 -0.4 93 -3 -3 1020.9 1011.0
03 17.02 З 2 10 км 10/0
[As op]
+0.5 -1.0 90 -3 -3 1020.8 1010.9 +0.5
06 17.02 ЮЗ 3 4000 м слаб. морось 10/10 300 м
[St]
+1.4 +0.4 93 -3 -3 1020.4 1010.6 +0.5
09 17.02 ЮЗ 5-11
{11}
10 км слаб. морось 10/10 300 м
[St]
+2.8 +1.4 90 -3 -3 1019.3 1009.6
12 17.02 З 6-13
{13}
10 км {морось} 10/10 600 м
[St]
+5.3 +2.1 80 0 0 1019.3 1009.6
15 17.02 ЮЗ 5-10
{13}
10 км 6/0
[Ac trans Ci fib]
+7.0 +2.4 73 +3 +3 1014.6 1005.0 +7.3 0.1
18 17.02 ЮЗ 6-11
{15}
10 км 8/5 1000 м
[Sc Ac trans]
+6.3 +2.5 77 +2 +2 1013.7 1004.1
21 17.02 ЮЗ 8-15
{15}
10 км 10/10 1000 м
[Sc]
+6.9 +2.7 75 +2 +2 1012.0 1002.5
00 18.02 З 6-13
{15}
10 км 10/10 1000 м
[Sc]
+7.1 +3.0 75 +3 +3 1011.5 1002.0
03 18.02 З 4-11
{14}
10 км 10/10 1000 м
[Sc]
+4.8 +1.5 79 +1 +1 1011.5 1001.8 +4.8
06 18.02 З 5-11
{11}
10 км 10/0
[Ac trans Cc]
+3.4 -1.0 73 -2 -1 1013.6 1003.9 +3.3

 

Местоположение метеостанции Тихорецк (Краснодарский край, Россия): широта 45.85 долгота 40.08 высота над уровнем моря 78 м.

В архиве по умолчанию представлена погода в Тихорецке за последнюю неделю. Архивные данные за месяц целиком и за предыдущие месяцы, начиная с января 2011 года, Вы можете получить, выбрав интересующий диапазон дат из раскрывающегося списка и нажав кнопку "Ввод!".


*Определитесь, кто Вы:
робот инопланетянин человек

Внимание! Время в таблицах - всемирное. Для получения местного времени необходимо прибавить поправку, которая равна 3 ч.

Смотрите также архив погоды в соседних городах и на ближайших метеорологических станциях:

Погода в Сосыке (Краснодарский край, Россия) (37 км)
Погода в Кропоткине (Краснодарский край, Россия) (60 км)
Погода в Кореновске (Краснодарский край, Россия) (63 км)
Погода в Белой Глине (Краснодарский край, Россия) (67 км)
Погода в Усть-Лабинске (Краснодарский край, Россия) (74 км)
Погода в Кущевской (Краснодарский край, Россия) (84 км)
Погода в Каневской (Краснодарский край, Россия) (89 км)
Погода в Тимашевске (Краснодарский край, Россия) (93 км)
Погода в Новоалександровске (Ставропольский край, Россия) (95 км)
Погода в Красногвардейском (Ставропольский край, Россия) (109 км)

Пояснения к столбцам:

Ветер - указаны скорость ветра в м/с - средняя за 10 мин, порывы в срок и между сроками (в фигурных скобках) и направление, откуда дует ветер: С - северный, СВ - северо-восточный, В - восточный, ЮВ - юго-восточный, Ю - южный, ЮЗ - юго-западный, З - западный, СЗ - северо-западный.
Видимость - горизонтальная дальность видимости в метрах или километрах. При видимости от 1 до 10 км при отсутствии осадков обычно наблюдается дымка, при ухудшении видимости до 1 км и менее - туман. В сухую погоду видимость может ухудшаться дымом, пылью или мглою.
Явления - указаны атмосферные явления, наблюдавшиеся в срок или в последний час перед сроком; фигурными скобками обозначены явления, наблюдавшиеся между сроками (за 1-3 часа до срока); квадратными скобками обозначены град или гололедные отложения с указанием их диаметра в мм.
Облачность - указаны через наклонную черту общая и нижняя облачность в баллах и высота нижней границы облаков в метрах; квадратными скобками обозначены формы облаков: Ci - перистые, Cs - перисто-слоистые, Cc - перисто-кучевые, Ac - высококучевые, As - высокослоистые, Sc - слоисто-кучевые, Ns - слоисто-дождевые, Cu - кучевые, Cb - кучево-дождевые. Подробнее классификацию облаков см. в Атласе облаков (PDF).
T - Температура воздуха - температура, измеренная на высоте 2 м над землей.
Td - Температура точки росы - температура, при понижении до которой содержащийся в воздухе водяной пар достигнет насыщения.
f - Относительная влажность воздуха - влажноcть воздуха, измеренная на высоте 2 м над землей.
Te - Эффективная температура - температура, которую ощущает одетый по сезону человек в тени. Характеристика душности погоды. При расчете учитывается влияние влажности воздуха и скорости ветра на теплоощущения человека.
Tes - Эффективная температура на солнце - температура, которую ощущает человек, с поправкой на солнечный нагрев. Характеристика знойности погоды. Зависит от высоты солнца над горизонтом, облачности и скорости ветра. Ночью, в пасмурную погоду, а также при ветре 12 м/с и более поправка равна нулю.
P - Атмосферное давление - приведенное к уровню моря атмосферное давление.
Po - Атмосферное давление - измеренное на уровне метеостанции атмосферное давление.
Tmin - Минимальная температура - минимум температуры воздуха на высоте 2 м над землей.
Tmax - Максимальная температура - максимум температуры воздуха на высоте 2 м над землей.
R - Количество осадков - Количество выпавших осадков за период времени, мм. При наведении курсора мыши на число - период времени, за который выпало указанное количество осадков.
R24 - Количество осадков - Количество выпавших осадков за 24 часа, мм.
S - Снежный покров - Высота снежного покрова, см. При наведении курсора мыши на число - состояние снежного покрова и степень покрытия местности в баллах.